Time,TemperatureF,DewpointF,PressureIn,WindDirection,WindDirectionDegrees,WindSpeedMPH,WindSpeedGustMPH,Humidity,HourlyPrecipIn,Conditions,Clouds,dailyrainin,SolarRadiationWatts/m^2,SoftwareType,DateUTC
2013-06-01 00:13:00,76.4,73.0,30.11,SSE,154,9.0,11.0,88,0.00,,,0.00,0,weatherlink.com 1.10,2013-06-01 04:13:00,
2013-06-01 00:28:00,76.5,73.0,30.11,SSE,165,7.0,14.0,88,0.00,,,0.00,0,weatherlink.com 1.10,2013-06-01 04:28:00,
2013-06-01 00:43:00,76.5,73.0,30.11,SSE,158,7.0,13.0,88,0.00,,,0.00,0,weatherlink.com 1.10,2013-06-01 04:43:00,
2013-06-01 00:58:00,76.3,73.0,30.11,SSE,165,9.0,12.0,88,0.00,,,0.00,0,weatherlink.com 1.10,2013-06-01 04:58:00,
2013-06-01 01:14:00,76.2,73.0,30.11,SSE,153,5.0,10.0,88,0.00,,,0.00,0,weatherlink.com 1.10,2013-06-01 05:14:00,
2013-06-01 01:29:00,76.1,73.0,30.10,SSE,158,6.0,10.0,89,0.00,,,0.00,0,weatherlink.com 1.10,2013-06-01 05:29:00,
2013-06-01 01:44:00,76.2,73.0,30.09,SSE,151,5.0,10.0,88,0.00,,,0.00,0,weatherlink.com 1.10,2013-06-01 05:44:00,
2013-06-01 01:59:00,76.2,73.0,30.09,South,177,7.0,11.0,88,0.00,,,0.00,0,weatherlink.com 1.10,2013-06-01 05:59:00,
2013-06-01 02:14:00,76.2,73.0,30.09,SSE,151,9.0,11.0,89,0.00,,,0.00,0,weatherlink.com 1.10,2013-06-01 06:14:00,
2013-06-01 02:29:00,76.3,73.0,30.09,South,176,6.0,11.0,89,0.00,,,0.00,0,weatherlink.com 1.10,2013-06-01 06:29:00,
2013-06-01 02:44:00,76.2,73.0,30.09,South,172,8.0,12.0,88,0.00,,,0.00,0,weatherlink.com 1.10,2013-06-01 06:44:00,
2013-06-01 02:59:00,76.2,73.0,30.08,SSE,148,5.0,10.0,88,0.00,,,0.00,0,weatherlink.com 1.10,2013-06-01 06:59:00,
2013-06-01 03:14:00,76.1,73.0,30.08,SSE,154,6.0,9.0,89,0.00,,,0.00,0,weatherlink.com 1.10,2013-06-01 07:14:00,
2013-06-01 03:30:00,75.9,72.0,30.08,SSE,159,8.0,11.0,88,0.00,,,0.00,0,weatherlink.com 1.10,2013-06-01 07:30:00,
2013-06-01 03:44:00,75.9,72.0,30.07,SSE,149,5.0,9.0,88,0.00,,,0.00,0,weatherlink.com 1.10,2013-06-01 07:44:00,
2013-06-01 03:59:00,76.0,72.0,30.08,SSE,166,6.0,9.0,87,0.00,,,0.00,0,weatherlink.com 1.10,2013-06-01 07:59:00,
2013-06-01 04:14:00,75.9,72.0,30.08,SSE,166,7.0,7.0,88,0.00,,,0.00,0,weatherlink.com 1.10,2013-06-01 08:14:00,
2013-06-01 04:29:00,76.0,72.0,30.09,SSE,151,5.0,9.0,88,0.00,,,0.00,0,weatherlink.com 1.10,2013-06-01 08:29:00,
2013-06-01 04:44:00,76.0,72.0,30.09,South,170,6.0,8.0,88,0.00,,,0.00,0,weatherlink.com 1.10,2013-06-01 08:44:00,
2013-06-01 04:59:00,76.2,73.0,30.09,South,180,4.0,8.0,88,0.00,,,0.00,0,weatherlink.com 1.10,2013-06-01 08:59:00,
2013-06-01 05:14:00,75.9,73.0,30.10,SSE,155,6.0,9.0,89,0.00,,,0.00,0,weatherlink.com 1.10,2013-06-01 09:14:00,
2013-06-01 05:29:00,75.9,72.0,30.10,South,182,7.0,7.0,88,0.00,,,0.00,0,weatherlink.com 1.10,2013-06-01 09:29:00,
2013-06-01 05:44:00,75.3,72.0,30.10,SSE,165,3.0,4.0,88,0.00,,,0.00,0,weatherlink.com 1.10,2013-06-01 09:44:00,
2013-06-01 05:59:00,75.0,71.0,30.10,SSE,156,1.0,5.0,88,0.00,,,0.00,0,weatherlink.com 1.10,2013-06-01 09:59:00,
2013-06-01 06:14:00,74.7,71.0,30.10,SSE,153,2.0,5.0,88,0.00,,,0.00,5,weatherlink.com 1.10,2013-06-01 10:14:00,
2013-06-01 06:29:00,74.6,71.0,30.11,SSE,153,0.0,0.0,89,0.00,,,0.00,14,weatherlink.com 1.10,2013-06-01 10:29:00,
2013-06-01 06:44:00,74.4,71.0,30.11,SSE,152,0.0,0.0,88,0.00,,,0.00,23,weatherlink.com 1.10,2013-06-01 10:44:00,
2013-06-01 06:59:00,74.0,71.0,30.11,SSE,152,0.0,0.0,89,0.00,,,0.00,30,weatherlink.com 1.10,2013-06-01 10:59:00,
2013-06-01 07:14:00,74.4,71.0,30.12,SE,144,0.0,0.0,89,0.00,,,0.00,81,weatherlink.com 1.10,2013-06-01 11:14:00,
2013-06-01 07:29:00,75.5,72.0,30.12,SE,143,2.0,4.0,88,0.00,,,0.00,163,weatherlink.com 1.10,2013-06-01 11:29:00,
2013-06-01 07:44:00,76.2,71.0,30.11,SSE,149,3.0,7.0,85,0.00,,,0.00,214,weatherlink.com 1.10,2013-06-01 11:44:00,
2013-06-01 07:59:00,76.9,72.0,30.12,SE,139,2.0,7.0,84,0.00,,,0.00,262,weatherlink.com 1.10,2013-06-01 11:59:00,
2013-06-01 08:14:00,77.1,72.0,30.12,SSE,161,6.0,8.0,84,0.00,,,0.00,313,weatherlink.com 1.10,2013-06-01 12:14:00,
2013-06-01 08:29:00,77.2,72.0,30.12,SSE,157,2.0,9.0,84,0.00,,,0.00,364,weatherlink.com 1.10,2013-06-01 12:29:00,
2013-06-01 08:44:00,77.5,72.0,30.12,ESE,118,0.0,10.0,84,0.00,,,0.00,415,weatherlink.com 1.10,2013-06-01 12:44:00,
2013-06-01 08:59:00,77.9,72.0,30.12,ESE,121,7.0,10.0,83,0.00,,,0.00,468,weatherlink.com 1.10,2013-06-01 12:59:00,
2013-06-01 09:14:00,77.8,72.0,30.12,South,178,4.0,10.0,83,0.00,,,0.00,519,weatherlink.com 1.10,2013-06-01 13:14:00,
2013-06-01 09:29:00,77.8,72.0,30.12,SSE,150,5.0,11.0,83,0.00,,,0.00,561,weatherlink.com 1.10,2013-06-01 13:29:00,
2013-06-01 09:45:00,78.3,73.0,30.12,ESE,114,6.0,9.0,83,0.00,,,0.00,608,weatherlink.com 1.10,2013-06-01 13:45:00,
2013-06-01 10:00:00,78.0,72.0,30.12,SSE,162,8.0,11.0,82,0.00,,,0.00,649,weatherlink.com 1.10,2013-06-01 14:00:00,
2013-06-01 10:15:00,78.5,72.0,30.12,ESE,107,4.0,12.0,81,0.00,,,0.00,691,weatherlink.com 1.10,2013-06-01 14:15:00,
2013-06-01 10:30:00,78.7,72.0,30.12,ESE,110,6.0,11.0,80,0.00,,,0.00,735,weatherlink.com 1.10,2013-06-01 14:30:00,
2013-06-01 10:45:00,78.8,73.0,30.12,SSE,159,9.0,12.0,81,0.00,,,0.00,770,weatherlink.com 1.10,2013-06-01 14:45:00,
2013-06-01 11:00:00,79.1,72.0,30.12,SSE,162,4.0,9.0,78,0.00,,,0.00,803,weatherlink.com 1.10,2013-06-01 15:00:00,
2013-06-01 11:15:00,78.7,71.0,30.12,SE,137,7.0,12.0,78,0.00,,,0.00,833,weatherlink.com 1.10,2013-06-01 15:15:00,
2013-06-01 11:30:00,79.1,72.0,30.12,SSE,155,3.0,12.0,79,0.00,,,0.00,858,weatherlink.com 1.10,2013-06-01 15:30:00,
2013-06-01 11:45:00,78.8,72.0,30.12,SSE,166,7.0,12.0,80,0.00,,,0.00,888,weatherlink.com 1.10,2013-06-01 15:45:00,
2013-06-01 12:00:00,79.2,72.0,30.12,SE,127,8.0,13.0,79,0.00,,,0.00,907,weatherlink.com 1.10,2013-06-01 16:00:00,
2013-06-01 12:15:00,79.0,72.0,30.12,SE,134,5.0,14.0,80,0.00,,,0.00,923,weatherlink.com 1.10,2013-06-01 16:15:00,
2013-06-01 12:30:00,79.1,72.0,30.11,SSE,153,7.0,13.0,78,0.00,,,0.00,940,weatherlink.com 1.10,2013-06-01 16:30:00,
2013-06-01 12:45:00,79.2,73.0,30.11,ESE,113,4.0,14.0,81,0.00,,,0.00,949,weatherlink.com 1.10,2013-06-01 16:45:00,
2013-06-01 13:00:00,78.8,72.0,30.11,SSE,160,11.0,13.0,80,0.00,,,0.00,956,weatherlink.com 1.10,2013-06-01 17:00:00,
2013-06-01 13:15:00,78.2,73.0,30.11,SSE,147,9.0,14.0,83,0.00,,,0.00,956,weatherlink.com 1.10,2013-06-01 17:15:00,
2013-06-01 13:30:00,78.3,72.0,30.11,ESE,102,7.0,13.0,81,0.00,,,0.00,956,weatherlink.com 1.10,2013-06-01 17:30:00,
2013-06-01 13:45:00,78.7,72.0,30.10,SSE,150,8.0,12.0,80,0.00,,,0.00,951,weatherlink.com 1.10,2013-06-01 17:45:00,
2013-06-01 14:00:00,79.2,73.0,30.10,SSE,161,8.0,14.0,80,0.00,,,0.00,942,weatherlink.com 1.10,2013-06-01 18:00:00,
2013-06-01 14:15:00,78.7,72.0,30.09,SSE,159,8.0,14.0,80,0.00,,,0.00,932,weatherlink.com 1.10,2013-06-01 18:15:00,
2013-06-01 14:30:00,78.3,72.0,30.09,SSE,166,8.0,13.0,81,0.00,,,0.00,912,weatherlink.com 1.10,2013-06-01 18:30:00,
2013-06-01 14:46:00,78.5,72.0,30.09,SSE,147,10.0,12.0,80,0.00,,,0.00,893,weatherlink.com 1.10,2013-06-01 18:46:00,
2013-06-01 15:01:00,78.9,72.0,30.08,South,178,8.0,14.0,80,0.00,,,0.00,868,weatherlink.com 1.10,2013-06-01 19:01:00,
2013-06-01 15:16:00,78.9,73.0,30.08,ESE,116,7.0,12.0,81,0.00,,,0.00,840,weatherlink.com 1.10,2013-06-01 19:16:00,
2013-06-01 15:31:00,78.9,72.0,30.08,ESE,113,7.0,14.0,80,0.00,,,0.00,814,weatherlink.com 1.10,2013-06-01 19:31:00,
2013-06-01 15:46:00,78.7,73.0,30.08,SSE,152,8.0,12.0,82,0.00,,,0.00,782,weatherlink.com 1.10,2013-06-01 19:46:00,
2013-06-01 16:01:00,79.3,73.0,30.07,NE,52,3.0,11.0,82,0.00,,,0.00,754,weatherlink.com 1.10,2013-06-01 20:01:00,
2013-06-01 16:16:00,79.2,73.0,30.07,SE,126,8.0,13.0,81,0.00,,,0.00,717,weatherlink.com 1.10,2013-06-01 20:16:00,
2013-06-01 16:31:00,78.6,72.0,30.07,SSE,157,7.0,12.0,81,0.00,,,0.00,677,weatherlink.com 1.10,2013-06-01 20:31:00,
2013-06-01 16:46:00,78.6,72.0,30.07,SSE,156,7.0,10.0,80,0.00,,,0.00,631,weatherlink.com 1.10,2013-06-01 20:46:00,
2013-06-01 17:01:00,79.6,73.0,30.06,SSE,157,5.0,10.0,81,0.00,,,0.00,587,weatherlink.com 1.10,2013-06-01 21:01:00,
2013-06-01 17:16:00,79.3,73.0,30.07,SSE,157,6.0,10.0,81,0.00,,,0.00,543,weatherlink.com 1.10,2013-06-01 21:16:00,
2013-06-01 17:31:00,79.4,73.0,30.06,SSE,151,8.0,13.0,80,0.00,,,0.00,494,weatherlink.com 1.10,2013-06-01 21:31:00,
2013-06-01 17:46:00,78.9,73.0,30.06,ESE,102,6.0,12.0,83,0.00,,,0.00,452,weatherlink.com 1.10,2013-06-01 21:46:00,
2013-06-01 18:01:00,78.7,72.0,30.06,ESE,116,5.0,10.0,81,0.00,,,0.00,418,weatherlink.com 1.10,2013-06-01 22:01:00,
2013-06-01 18:16:00,78.9,73.0,30.06,SSE,167,7.0,10.0,83,0.00,,,0.00,345,weatherlink.com 1.10,2013-06-01 22:16:00,
2013-06-01 18:31:00,78.8,73.0,30.06,South,175,8.0,10.0,82,0.00,,,0.00,315,weatherlink.com 1.10,2013-06-01 22:31:00,
2013-06-01 18:46:00,78.5,72.0,30.05,SE,128,7.0,11.0,81,0.00,,,0.00,255,weatherlink.com 1.10,2013-06-01 22:46:00,
2013-06-01 19:01:00,78.7,72.0,30.06,SE,125,3.0,9.0,81,0.00,,,0.00,195,weatherlink.com 1.10,2013-06-01 23:01:00,
2013-06-01 19:16:00,78.7,72.0,30.06,SSE,156,4.0,8.0,81,0.00,,,0.00,146,weatherlink.com 1.10,2013-06-01 23:16:00,
2013-06-01 19:31:00,78.5,72.0,30.06,SSE,164,4.0,11.0,80,0.00,,,0.00,97,weatherlink.com 1.10,2013-06-01 23:31:00,
2013-06-01 19:46:00,78.1,72.0,30.05,SSE,151,2.0,8.0,80,0.00,,,0.00,53,weatherlink.com 1.10,2013-06-01 23:46:00,
2013-06-01 20:01:00,77.8,72.0,30.05,SSE,155,4.0,10.0,81,0.00,,,0.00,23,weatherlink.com 1.10,2013-06-02 00:01:00,
2013-06-01 20:16:00,77.3,71.0,30.05,SSE,150,3.0,8.0,82,0.00,,,0.00,9,weatherlink.com 1.10,2013-06-02 00:16:00,
2013-06-01 20:31:00,77.1,72.0,30.04,SSE,151,3.0,9.0,84,0.00,,,0.00,0,weatherlink.com 1.10,2013-06-02 00:31:00,
2013-06-01 20:46:00,76.9,72.0,30.04,SSE,158,5.0,12.0,84,0.00,,,0.00,0,weatherlink.com 1.10,2013-06-02 00:46:00,
2013-06-01 21:01:00,76.7,72.0,30.04,SE,128,6.0,9.0,84,0.00,,,0.00,0,weatherlink.com 1.10,2013-06-02 01:01:00,
2013-06-01 21:16:00,76.7,72.0,30.05,SE,139,6.0,10.0,85,0.00,,,0.00,0,weatherlink.com 1.10,2013-06-02 01:16:00,
2013-06-01 21:31:00,76.9,72.0,30.05,SE,137,3.0,11.0,85,0.00,,,0.00,0,weatherlink.com 1.10,2013-06-02 01:31:00,
2013-06-01 21:46:00,76.6,72.0,30.05,SSE,153,5.0,10.0,85,0.00,,,0.00,0,weatherlink.com 1.10,2013-06-02 01:46:00,
2013-06-01 22:01:00,76.7,72.0,30.05,SSE,154,7.0,11.0,85,0.00,,,0.00,0,weatherlink.com 1.10,2013-06-02 02:01:00,
2013-06-01 22:16:00,77.0,72.0,30.05,SE,145,8.0,10.0,85,0.00,,,0.00,0,weatherlink.com 1.10,2013-06-02 02:16:00,
2013-06-01 22:31:00,77.0,73.0,30.06,SSE,157,6.0,9.0,86,0.00,,,0.00,0,weatherlink.com 1.10,2013-06-02 02:31:00,
2013-06-01 22:46:00,77.0,72.0,30.07,SE,143,6.0,13.0,85,0.00,,,0.00,0,weatherlink.com 1.10,2013-06-02 02:46:00,
2013-06-01 23:01:00,77.0,73.0,30.07,SE,143,9.0,10.0,86,0.00,,,0.00,0,weatherlink.com 1.10,2013-06-02 03:01:00,
2013-06-01 23:16:00,77.2,72.0,30.07,South,172,10.0,14.0,85,0.00,,,0.00,0,weatherlink.com 1.10,2013-06-02 03:16:00,
2013-06-01 23:31:00,77.2,72.0,30.07,SSE,162,7.0,14.0,85,0.00,,,0.00,0,weatherlink.com 1.10,2013-06-02 03:31:00,
2013-06-01 23:46:00,77.2,72.0,30.07,SSE,165,10.0,13.0,85,0.00,,,0.00,0,weatherlink.com 1.10,2013-06-02 03:46:00,